Weather History for Spokane Fairchild, WA

Change the Weather History Date:

Saturday, July 13, 2013

  Actual Average Record
Temperature  
Mean Temperature 62 °F -  
Max Temperature 75 °F 80 °F 100 °F (2002)
Min Temperature 50 °F 54 °F 44 °F (2010)
Degree Days  
Heating Degree Days 2    
Growing Degree Days 12 (Base 50)    
Moisture  
Dew Point 38 °F    
Average Humidity 39    
Maximum Humidity 66    
Minimum Humidity 25    
Precipitation  
Precipitation 0.00 in - - ()
Sea Level Pressure  
Sea Level Pressure 30.09 in    
Wind  
Wind Speed 6 mph (SW)    
Max Wind Speed 13 mph    
Max Gust Speed -    
Visibility 9 miles    
Events      
Averages and records for this station are not official NWS values.
T = Trace of Precipitation, MM = Missing Value Source: NWS Daily Summary

Daily Weather History Graph

Daily Weather History Graph

Search for Another Location

Airport:

Trip Planner

Search our weather history database for the weather conditions in past years. The results will help you decide how hot, cold, wet, or windy it might be!

Date:

Astronomy

Jul. 13, 2013 Rise Set
Actual Time 5:06 AM PDT 8:45 PM PDT
Civil Twilight 4:27 AM PDT 9:24 PM PDT
Nautical Twilight 3:35 AM PDT 10:16 PM PDT
Astronomical Twilight 2:21 AM PDT 11:28 PM PDT
Moon 10:54 AM PDT (7/13) 10:59 PM PDT (7/13)
Length of Visible Light 16h 56m
Length of Day
15h 38m
Waxing Crescent, 26% of the Moon is Illuminated
Jul 13
Waxing Crescent
Jul 15
First Quarter
Jul 22
Full
Jul 29
Last Quarter
Aug 6
New

Hourly Weather History & Observations

Time (PDT) Temp. Dew Point Humidity Pressure Visibility Wind Dir Wind Speed Gust Speed Precip Events Conditions
12:58 AM 51.1 °F 38.5 °F 62% 29.98 in 10.0 mi WSW 5.8 mph - N/A   Partly Cloudy
1:58 AM 52.5 °F 37.9 °F 58% 29.98 in 10.0 mi SW 9.2 mph - N/A   Mostly Cloudy
2:58 AM 54.5 °F 35.8 °F 49% 29.99 in 10.0 mi WSW 6.9 mph - N/A   Overcast
3:58 AM 54.1 °F 37.8 °F 54% 30.00 in 10.0 mi SW 8.1 mph - N/A   Overcast
4:58 AM 55.6 °F 35.1 °F 46% 30.01 in 10.0 mi SSW 3.5 mph - N/A   Overcast
5:58 AM 51.1 °F 40.1 °F 66% 30.05 in 10.0 mi South 11.5 mph - N/A   Overcast
6:58 AM 50.9 °F 36.9 °F 59% 30.09 in 10.0 mi SW 8.1 mph - N/A   Partly Cloudy
7:58 AM 56.1 °F 39.0 °F 53% 30.11 in 10.0 mi South 4.6 mph - N/A   Clear
8:58 AM 60.1 °F 41.0 °F 49% 30.13 in 10.0 mi South 4.6 mph - N/A   Clear
9:58 AM 64.6 °F 40.8 °F 42% 30.14 in 10.0 mi SSW 9.2 mph - N/A   Clear
10:58 AM 67.6 °F 40.8 °F 38% 30.15 in 10.0 mi South 12.7 mph - N/A   Clear
11:58 AM 68.9 °F 39.4 °F 34% 30.15 in 10.0 mi SW 5.8 mph - N/A   Clear
12:58 PM 71.2 °F 38.1 °F 30% 30.14 in 10.0 mi Variable 5.8 mph - N/A   Clear
1:58 PM 72.3 °F 37.9 °F 29% 30.13 in 10.0 mi Variable 4.6 mph - N/A   Clear
2:58 PM 73.2 °F 38.5 °F 28% 30.13 in 10.0 mi SW 5.8 mph - N/A   Clear
3:58 PM 75.0 °F 39.0 °F 27% 30.11 in 10.0 mi Variable 3.5 mph - N/A   Clear
4:58 PM 74.7 °F 38.7 °F 27% 30.10 in 10.0 mi Variable 2.3 mph - N/A   Clear
5:37 PM 75.2 °F 39.2 °F 27% 30.11 in 2.5 mi Variable 4.6 mph - N/A   Haze
5:39 PM 75.2 °F 37.4 °F 25% 30.11 in 2.0 mi East 2.3 mph - N/A   Haze
5:41 PM 75.2 °F 37.4 °F 25% 30.11 in 2.5 mi Variable 1.2 mph - N/A   Haze
5:43 PM 75.2 °F 37.4 °F 25% 30.11 in 3.0 mi West 6.9 mph - N/A   Haze
5:58 PM 74.8 °F 37.4 °F 26% 30.09 in 10.0 mi Variable 1.2 mph - N/A   Clear
6:58 PM 74.5 °F 37.8 °F 26% 30.09 in 10.0 mi North 4.6 mph - N/A   Clear
7:58 PM 72.0 °F 41.7 °F 34% 30.09 in 10.0 mi NNW 4.6 mph - N/A   Clear
8:58 PM 68.2 °F 37.8 °F 33% 30.09 in 10.0 mi NNW 3.5 mph - N/A   Clear
9:58 PM 65.8 °F 38.3 °F 36% 30.10 in 10.0 mi NNE 5.8 mph - N/A   Clear
10:58 PM 63.0 °F 38.8 °F 41% 30.09 in 10.0 mi SE 2.3 mph - N/A   Clear
11:58 PM 60.6 °F 39.0 °F 45% 30.09 in 10.0 mi East 2.3 mph - N/A   Clear